| time (UTC) | temp C | wind direction | speed KPH | gust KPH | rain 1hr cm | rain 24hr cm | rain mn cm | humidity % | barometer mb |
| 20260505040054 | 8 | 313 | 0.0 | 0.0 | 0.00 | 0.00 | 0.00 | 85 | 1015.1 |
| 20260505034549 | 8 | 313 | 0.0 | 0.0 | 0.00 | 0.00 | 0.00 | 85 | 1015.1 |
| 20260505033046 | 9 | 313 | 0.0 | 0.0 | 0.00 | 0.00 | 0.00 | 84 | 1015.1 |
| 20260505031553 | 10 | 313 | 0.0 | 0.0 | 0.00 | 0.00 | 0.00 | 83 | 1015.3 |
| 20260505030042 | 10 | 313 | 0.0 | 0.0 | 0.00 | 0.00 | 0.00 | 81 | 1015.4 |
| 20260505024553 | 10 | 313 | 0.0 | 0.0 | 0.00 | 0.00 | 0.00 | 79 | 1015.5 |
| 20260505023039 | 10 | 313 | 0.0 | 0.0 | 0.00 | 0.00 | 0.00 | 78 | 1015.7 |
| 20260505021536 | 11 | 313 | 0.0 | 3.2 | 0.00 | 0.00 | 0.00 | 77 | 1015.7 |
| 20260505020032 | 11 | 313 | 0.0 | 3.2 | 0.00 | 0.00 | 0.00 | 74 | 1015.9 |
| 20260505014534 | 12 | 315 | 0.0 | 3.2 | 0.00 | 0.00 | 0.00 | 72 | 1016.0 |
| 20260505013025 | 13 | 316 | 1.6 | 9.7 | 0.00 | 0.00 | 0.00 | 70 | 1016.1 |
| 20260505011525 | 13 | 256 | 0.0 | 9.7 | 0.00 | 0.00 | 0.00 | 69 | 1016.2 |
| 20260505010025 | 13 | 228 | 0.0 | 9.7 | 0.00 | 0.00 | 0.00 | 69 | 1016.3 |
| 20260505004527 | 13 | 245 | 1.6 | 9.7 | 0.00 | 0.00 | 0.00 | 69 | 1016.4 |
| 20260505003118 | 13 | 280 | 1.6 | 8.0 | 0.00 | 0.00 | 0.00 | 69 | 1016.4 |
| 20260505001515 | 13 | 259 | 0.0 | 6.4 | 0.00 | 0.00 | 0.00 | 71 | 1016.6 |
| 20260505000011 | 13 | 273 | 0.0 | 6.4 | 0.00 | 0.00 | 0.00 | 70 | 1016.7 |
| 20260504234510 | 13 | 311 | 0.0 | 6.4 | 0.00 | 0.00 | 0.00 | 71 | 1016.8 |
| 20260504233007 | 13 | 316 | 0.0 | 4.8 | 0.00 | 0.00 | 0.00 | 71 | 1016.8 |
| 20260504231506 | 13 | 261 | 0.0 | 3.2 | 0.00 | 0.00 | 0.00 | 71 | 1016.9 |
| 20260504230005 | 13 | 261 | 0.0 | 3.2 | 0.00 | 0.00 | 0.00 | 72 | 1017.0 |
| 20260504224503 | 13 | 265 | 0.0 | 3.2 | 0.00 | 0.00 | 0.00 | 70 | 1017.2 |
| 20260504223002 | 13 | 261 | 0.0 | 8.0 | 0.00 | 0.00 | 0.00 | 70 | 1017.3 |
| 20260504221557 | 13 | 194 | 0.0 | 1.6 | 0.00 | 0.00 | 0.00 | 73 | 1017.3 |
| 20260504220056 | 13 | 194 | 0.0 | 3.2 | 0.00 | 0.00 | 0.00 | 72 | 1017.3 |
| 20260504214554 | 13 | 194 | 0.0 | 1.6 | 0.00 | 0.00 | 0.00 | 72 | 1017.4 |
| 20260504213102 | 13 | 194 | 0.0 | 1.6 | 0.00 | 0.00 | 0.00 | 71 | 1017.3 |
| 20260504211553 | 13 | 194 | 0.0 | 3.2 | 0.00 | 0.00 | 0.00 | 72 | 1017.4 |
| 20260504210058 | 13 | 194 | 0.0 | 3.2 | 0.00 | 0.00 | 0.00 | 73 | 1017.5 |
| 20260504204553 | 13 | 194 | 0.0 | 0.0 | 0.00 | 0.00 | 0.00 | 73 | 1017.5 |
| 20260504203106 | 13 | 194 | 0.0 | 3.2 | 0.00 | 0.00 | 0.00 | 71 | 1017.5 |
| 20260504201555 | 14 | 194 | 0.0 | 3.2 | 0.00 | 0.00 | 0.00 | 67 | 1017.5 |
| 20260504200054 | 14 | 194 | 0.0 | 0.0 | 0.00 | 0.00 | 0.00 | 66 | 1017.5 |
| 20260504194550 | 15 | 194 | 0.0 | 3.2 | 0.00 | 0.00 | 0.00 | 64 | 1017.5 |
| 20260504193053 | 15 | 244 | 0.0 | 6.4 | 0.00 | 0.00 | 0.00 | 62 | 1017.3 |
| 20260504191556 | 15 | 207 | 0.0 | 6.4 | 0.00 | 0.00 | 0.00 | 61 | 1017.3 |
| 20260504190049 | 16 | 194 | 0.0 | 3.2 | 0.00 | 0.00 | 0.00 | 60 | 1017.1 |
| 20260504184548 | 16 | 194 | 0.0 | 3.2 | 0.00 | 0.00 | 0.00 | 58 | 1017.0 |
| 20260504183047 | 17 | 194 | 0.0 | 1.6 | 0.00 | 0.00 | 0.00 | 55 | 1016.8 |
| 20260504181548 | 18 | 249 | 1.6 | 8.0 | 0.00 | 0.00 | 0.00 | 52 | 1016.7 |
| 20260504180046 | 18 | 238 | 1.6 | 9.7 | 0.00 | 0.00 | 0.00 | 50 | 1016.7 |
| 20260504174546 | 19 | 259 | 3.2 | 12.9 | 0.00 | 0.00 | 0.00 | 50 | 1016.5 |
| 20260504173046 | 20 | 252 | 4.8 | 17.7 | 0.00 | 0.00 | 0.00 | 48 | 1016.3 |
| 20260504171548 | 20 | 262 | 4.8 | 16.1 | 0.00 | 0.00 | 0.00 | 47 | 1016.3 |
| 20260504090110 | 18 | 198 | 1.6 | 6.4 | 0.00 | 0.00 | 0.00 | 54 | 1018.7 |
| 20260504081553 | 16 | 150 | 1.6 | 8.0 | 0.00 | 0.00 | 0.00 | 60 | 1019.1 |
| 20260504044604 | 5 | 267 | 0.0 | 0.0 | 0.00 | 0.00 | 0.00 | 92 | 1019.0 |
| 20260504043058 | 5 | 267 | 0.0 | 0.0 | 0.00 | 0.00 | 0.00 | 92 | 1018.9 |
| 20260504041556 | 5 | 267 | 0.0 | 0.0 | 0.00 | 0.00 | 0.00 | 92 | 1018.9 |